• En España
  • Lista de países
  • Para 7 días
  • Temperatura del agua
  • Mapa Satelital
  • El tiempo en el mapa
  • Informadores
  • user-avatar
    Iniciar sesión

    Tiempo cada hora Kachanovka

    Hoy, 22 Julio, Domingo

    Tiempo Temperatura Precipitaciones Viento Presión Humedad
    00:00 +19°C° 0 mm 3 mps 737 mmHg 95%
    01:00 +19°C° 0 mm 3 mps 737 mmHg 96%
    02:00 +19°C° 0 mm 3 mps 737 mmHg 97%
    03:00 +19°C° 0 mm 2 mps 737 mmHg 98%
    04:00 +19°C° 0,1 mm 3 mps 737 mmHg 98%
    05:00 +19°C° 0,1 mm 4 mps 737 mmHg 97%
    06:00 +19°C° 0,1 mm 4 mps 738 mmHg 97%
    07:00 +20°C° 0,1 mm 5 mps 738 mmHg 96%
    08:00 +20°C° 0,1 mm 5 mps 738 mmHg 95%
    09:00 +20°C° 0,1 mm 5 mps 738 mmHg 94%
    10:00 +20°C° 0,1 mm 5 mps 738 mmHg 93%
    11:00 +20°C° 0,1 mm 5 mps 738 mmHg 92%
    12:00 +21°C° 0,1 mm 5 mps 738 mmHg 91%
    13:00 +21°C° 0 mm 5 mps 738 mmHg 90%
    14:00 +21°C° 0 mm 5 mps 738 mmHg 89%
    15:00 +22°C° 0 mm 5 mps 738 mmHg 87%
    16:00 +22°C° 0,1 mm 5 mps 738 mmHg 87%
    17:00 +22°C° 0,1 mm 5 mps 738 mmHg 87%
    18:00 +22°C° 0,1 mm 5 mps 738 mmHg 86%
    19:00 +21°C° 0,1 mm 5 mps 738 mmHg 88%
    20:00 +21°C° 0,1 mm 5 mps 738 mmHg 90%
    21:00 +20°C° 0,1 mm 5 mps 738 mmHg 93%
    22:00 +20°C° 0,4 mm 5 mps 738 mmHg 93%
    23:00 +19°C° 0,4 mm 5 mps 738 mmHg 94%

    Mañana, 23 Julio, Lunes

    Tiempo Temperatura Precipitaciones Viento Presión Humedad
    00:00 +19°C° 0,4 mm 5 mps 738 mmHg 95%
    01:00 +19°C° 0 mm 5 mps 738 mmHg 95%
    02:00 +19°C° 0 mm 5 mps 738 mmHg 94%
    03:00 +19°C° 0 mm 5 mps 738 mmHg 94%
    04:00 +19°C° 0,1 mm 5 mps 738 mmHg 94%
    05:00 +17°C° 0,1 mm 5 mps 738 mmHg 94%
    06:00 +17°C° 0,1 mm 5 mps 738 mmHg 94%
    07:00 +17°C° 0,1 mm 5 mps 738 mmHg 94%
    08:00 +17°C° 0,1 mm 5 mps 738 mmHg 93%
    09:00 +17°C° 0,1 mm 5 mps 738 mmHg 92%
    10:00 +17°C° 0,1 mm 5 mps 738 mmHg 92%
    11:00 +19°C° 0,1 mm 5 mps 738 mmHg 91%
    12:00 +19°C° 0,1 mm 5 mps 738 mmHg 90%
    13:00 +19°C° 0,1 mm 5 mps 738 mmHg 89%
    14:00 +19°C° 0,1 mm 5 mps 738 mmHg 89%
    15:00 +20°C° 0,1 mm 5 mps 738 mmHg 88%
    16:00 +20°C° 0,1 mm 5 mps 738 mmHg 88%
    17:00 +21°C° 0,1 mm 5 mps 738 mmHg 89%
    18:00 +21°C° 0,1 mm 5 mps 738 mmHg 89%
    19:00 +21°C° 0,5 mm 5 mps 738 mmHg 91%
    20:00 +20°C° 0,5 mm 5 mps 738 mmHg 93%
    21:00 +20°C° 0,5 mm 4 mps 738 mmHg 94%
    22:00 +20°C° 0,6 mm 4 mps 739 mmHg 95%
    23:00 +20°C° 0,6 mm 4 mps 739 mmHg 96%

    Pasado mañana, 24 Julio, Martes

    Tiempo Temperatura Precipitaciones Viento Presión Humedad
    00:00 +20°C° 0,6 mm 4 mps 739 mmHg 97%
    01:00 +20°C° 0,1 mm 4 mps 739 mmHg 97%
    02:00 +20°C° 0,1 mm 4 mps 739 mmHg 97%
    03:00 +20°C° 0,1 mm 3 mps 739 mmHg 97%
    04:00 +20°C° 0 mm 3 mps 739 mmHg 97%
    05:00 +20°C° 0 mm 3 mps 739 mmHg 97%
    06:00 +20°C° 0 mm 4 mps 739 mmHg 97%
    07:00 +21°C° 0 mm 3 mps 740 mmHg 93%
    08:00 +22°C° 0 mm 3 mps 740 mmHg 90%
    09:00 +24°C° 0 mm 3 mps 740 mmHg 87%
    10:00 +25°C° 0,6 mm 4 mps 740 mmHg 83%
    11:00 +26°C° 0,6 mm 4 mps 741 mmHg 79%
    12:00 +27°C° 0,6 mm 4 mps 741 mmHg 75%
    13:00 +27°C° 0,6 mm 4 mps 741 mmHg 76%
    14:00 +27°C° 0,6 mm 4 mps 741 mmHg 76%
    15:00 +27°C° 0,6 mm 4 mps 741 mmHg 77%
    16:00 +26°C° 0,9 mm 4 mps 741 mmHg 81%
    17:00 +25°C° 0,9 mm 4 mps 742 mmHg 84%
    18:00 +23°C° 0,9 mm 4 mps 742 mmHg 88%
    19:00 +22°C° 0,6 mm 4 mps 742 mmHg 90%
    20:00 +21°C° 0,6 mm 4 mps 742 mmHg 92%
    21:00 +20°C° 0,6 mm 4 mps 743 mmHg 95%
    22:00 +20°C° 0,1 mm 4 mps 743 mmHg 95%
    23:00 +20°C° 0,1 mm 3 mps 743 mmHg 95%

    25 Julio, Miércoles

    Tiempo Temperatura Precipitaciones Viento Presión Humedad
    00:00 +19°C° 0,1 mm 3 mps 743 mmHg 95%
    01:00 +19°C° 0 mm 3 mps 743 mmHg 94%
    02:00 +19°C° 0 mm 3 mps 743 mmHg 93%
    03:00 +18°C° 0 mm 3 mps 743 mmHg 92%
    04:00 +18°C° 0,1 mm 4 mps 743 mmHg 91%
    05:00 +17°C° 0,1 mm 5 mps 743 mmHg 89%
    06:00 +17°C° 0,1 mm 5 mps 743 mmHg 88%
    07:00 +19°C° 0 mm 6 mps 743 mmHg 84%
    08:00 +20°C° 0 mm 6 mps 743 mmHg 81%
    09:00 +20°C° 0 mm 6 mps 743 mmHg 77%
    10:00 +21°C° 0,1 mm 6 mps 743 mmHg 74%
    11:00 +22°C° 0,1 mm 7 mps 744 mmHg 71%
    12:00 +22°C° 0,1 mm 7 mps 744 mmHg 69%
    13:00 +23°C° 0 mm 7 mps 744 mmHg 68%
    14:00 +24°C° 0 mm 7 mps 744 mmHg 67%
    15:00 +26°C° 0 mm 7 mps 744 mmHg 66%
    16:00 +26°C° 0 mm 6 mps 744 mmHg 68%
    17:00 +24°C° 0 mm 6 mps 744 mmHg 70%
    18:00 +25°C° 0 mm 5 mps 744 mmHg 72%
    19:00 +23°C° 0 mm 5 mps 744 mmHg 74%
    20:00 +22°C° 0 mm 5 mps 745 mmHg 76%
    21:00 +21°C° 0 mm 4 mps 745 mmHg 78%
    22:00 +21°C° 0 mm 4 mps 745 mmHg 78%
    23:00 +20°C° 0 mm 4 mps 745 mmHg 78%

    26 Julio, Jueves

    Tiempo Temperatura Precipitaciones Viento Presión Humedad
    00:00 +20°C° 0 mm 4 mps 745 mmHg 79%
    01:00 +20°C° 0 mm 4 mps 745 mmHg 80%
    02:00 +19°C° 0 mm 4 mps 745 mmHg 81%
    03:00 +19°C° 0 mm 4 mps 745 mmHg 82%
    04:00 +18°C° 0 mm 4 mps 746 mmHg 83%
    05:00 +18°C° 0 mm 4 mps 746 mmHg 84%
    06:00 +18°C° 0 mm 4 mps 746 mmHg 85%
    07:00 +20°C° 0 mm 5 mps 746 mmHg 82%
    08:00 +21°C° 0 mm 5 mps 746 mmHg 79%
    09:00 +23°C° 0 mm 6 mps 746 mmHg 76%
    10:00 +23°C° 0 mm 5 mps 746 mmHg 74%
    11:00 +25°C° 0 mm 5 mps 746 mmHg 73%
    12:00 +26°C° 0 mm 5 mps 747 mmHg 71%
    13:00 +26°C° 0 mm 5 mps 747 mmHg 71%
    14:00 +26°C° 0 mm 5 mps 747 mmHg 71%
    15:00 +27°C° 0 mm 5 mps 747 mmHg 71%
    16:00 +27°C° 0 mm 5 mps 747 mmHg 73%
    17:00 +27°C° 0 mm 4 mps 747 mmHg 74%
    18:00 +27°C° 0 mm 4 mps 747 mmHg 76%
    19:00 +26°C° 0,1 mm 4 mps 747 mmHg 77%
    20:00 +23°C° 0,1 mm 4 mps 747 mmHg 79%
    21:00 +22°C° 0,1 mm 4 mps 747 mmHg 80%
    22:00 +22°C° 0,3 mm 4 mps 747 mmHg 82%
    23:00 +22°C° 0,3 mm 3 mps 747 mmHg 84%

    27 Julio, Viernes

    Tiempo Temperatura Precipitaciones Viento Presión Humedad
    00:00 +22°C° 0,3 mm 3 mps 748 mmHg 86%
    01:00 +21°C° 0,1 mm 3 mps 748 mmHg 88%
    02:00 +21°C° 0,1 mm 3 mps 748 mmHg 89%
    03:00 +20°C° 0,1 mm 3 mps 748 mmHg 91%
    04:00 +20°C° 0,1 mm 3 mps 748 mmHg 91%
    05:00 +20°C° 0,1 mm 3 mps 748 mmHg 90%
    06:00 +20°C° 0,1 mm 3 mps 749 mmHg 90%
    07:00 +21°C° 0 mm 4 mps 749 mmHg 85%
    08:00 +23°C° 0 mm 4 mps 749 mmHg 81%
    09:00 +25°C° 0 mm 4 mps 749 mmHg 76%
    10:00 +26°C° 0 mm 5 mps 749 mmHg 71%
    11:00 +27°C° 0 mm 5 mps 749 mmHg 65%
    12:00 +28°C° 0 mm 6 mps 749 mmHg 60%
    13:00 +29°C° 0 mm 5 mps 749 mmHg 60%
    14:00 +29°C° 0 mm 5 mps 749 mmHg 59%
    15:00 +29°C° 0 mm 5 mps 749 mmHg 59%
    16:00 +29°C° 0 mm 4 mps 749 mmHg 63%
    17:00 +28°C° 0 mm 4 mps 749 mmHg 67%
    18:00 +28°C° 0 mm 3 mps 749 mmHg 72%
    19:00 +26°C° 0 mm 3 mps 749 mmHg 74%
    20:00 +25°C° 0 mm 3 mps 749 mmHg 77%
    21:00 +22°C° 0 mm 3 mps 749 mmHg 80%
    22:00 +22°C° 0 mm 3 mps 749 mmHg 81%
    23:00 +21°C° 0 mm 3 mps 749 mmHg 82%
    Mostrar más